Regional Weather Roundup
Issued by NWS

Home | Current Version | Previous Version | Graphics & Text | Print | Product List | Glossary On
Versions: 1 2 3 4 5 6 7 8 9 10 11 12 13 14 15 16 17 18 19 20 21 22 23 24 25 26 27 28 29 30 31 32 33 34 35 36 37 38 39 40 41 42 43 44 45 46 47 48 49 50
117
ASUS43 KDTX 110010
RWRMI
MICHIGAN HOURLY REGIONAL WEATHER ROUNDUP
NATIONAL WEATHER SERVICE DETROIT/PONTIAC MI
700 PM EST WED FEB 10 2016

NOTE: "FAIR" INDICATES FEW OR NO CLOUDS BELOW 12,000 FEET WITH NO
SIGNIFICANT WEATHER AND/OR OBSTRUCTION TO VISIBILITY.

MIZ047>049-052>055-059>063-066>070-074>076-081>083-110100-
SOUTHEAST LOWER MICHIGAN

CITY           SKY/WX    TMP DP  RH WIND       PRES   REMARKS
ADRIAN         CLOUDY    19  10  68 NW13      29.95R WCI   6
6HR MIN TEMP:  18; 6HR MAX TEMP:  22; 6HR PCP: TRACE;

ALMA           PTCLDY    14   8  75 NW9       29.97R WCI   2
ANN ARBOR      FLURRIES  17  10  74 NW9       29.92R WCI   6
BAD AXE        CLOUDY    14   5  68 NW12      29.89R WCI   0
CARO           PTCLDY    12   0  57 W8        29.91R WCI   1
DETROIT CITY   MOCLDY    17   9  70 NW9       29.91R WCI   6
6HR MIN TEMP:  17; 6HR MAX TEMP:  21; 6HR PCP: TRACE;

DETROIT        FLURRIES  19   8  62 NW14G23   29.93R WCI   6
6HR MIN TEMP:  19; 6HR MAX TEMP:  22; 6HR PCP: TRACE;

FLINT          CLOUDY    17   2  51 NW14      29.93R WCI   3
6HR MIN TEMP:  17; 6HR MAX TEMP:  20; 6HR PCP: TRACE;

GROSSE ILE     CLOUDY    19   7  58 W10G17    29.91R WCI   8
HILLSDALE      CLOUDY    17   9  71 W9        29.93R WCI   5
6HR MIN TEMP:  17; 6HR MAX TEMP:  22;

HOWELL         LGT SNOW  17  10  75 NW13G22   29.92R WCI   3
6HR MIN TEMP:  16; 6HR MAX TEMP:  20;


CITY           SKY/WX    TMP DP  RH WIND       PRES   REMARKS
JACKSON        CLOUDY    16   3  56 W13       29.94R WCI   2
6HR MIN TEMP:  16; 6HR MAX TEMP:  20; 6HR PCP: TRACE;

LAMBERTVILLE   CLOUDY    19  11  69 W9        29.95R WCI   9
6HR MIN TEMP:  19; 6HR MAX TEMP:  23;

LANSING        CLOUDY    16   5  62 NW13G23   29.96R WCI   2
6HR MIN TEMP:  16; 6HR MAX TEMP:  20; 6HR PCP: TRACE;

LAPEER         CLOUDY    14   3  61 NW8       29.90R WCI   3
6HR MIN TEMP:  14; 6HR MAX TEMP:  17;

MASON          MOCLDY    16   3  57 NW16      29.94R WCI   0
MONROE         CLOUDY    21   7  55 W12       29.92R WCI   9
6HR MIN TEMP:  21; 6HR MAX TEMP:  24;

MT. CLEMENS    LGT SNOW  16  12  86 NW9       29.89R WCI   4
6HR MIN TEMP:  16; 6HR MAX TEMP:  20; 6HR PCP: TRACE;

PONTIAC        LGT SNOW  14   9  80 NW12      29.89R WCI   0
6HR MIN TEMP:  14; 6HR MAX TEMP:  18; 6HR PCP: TRACE;

PORT HOPE        N/A     15   7  70 NW22G29   29.88R WCI  -3
6HR MIN TEMP:  14; 6HR MAX TEMP:  17; 6HR PCP:  1.60;

PORT HURON     CLOUDY    16   3  57 NW10G18   29.90R WCI   3
TRI CITIES     CLEAR     14  -1  51 NW12      29.95R WCI   0
6HR MIN TEMP:  14; 6HR MAX TEMP:  20; 6HR PCP: TRACE;

MIDLAND        FAIR      13   0  56 NW9G16    29.95R WCI   1
6HR MIN TEMP:  13; 6HR MAX TEMP:  19;

TROY           CLOUDY    18  12  78 W10       29.93R WCI   6
SAGINAW HB     CLEAR     14   3  62 NW10      29.94R WCI   1
$$
MIZ043>046-050>051-056>058-064>065-071>073-077>080-110100-
SOUTHWEST LOWER MICHIGAN

CITY           SKY/WX    TMP DP  RH WIND       PRES   REMARKS
BATTLE CREEK   CLOUDY    16   4  59 N15       29.97R WCI   1
6HR MIN TEMP:  16; 6HR MAX TEMP:  21; 6HR PCP: TRACE;

BENTON HARBOR  FLURRIES  18   8  65 NW8       30.05R WCI   8
6HR MIN TEMP:  17; 6HR MAX TEMP:  21; 6HR PCP: TRACE;

BIG RAPIDS     LGT SNOW  14   6  73 NW7       29.96R WCI   3
6HR MIN TEMP:  13; 6HR MAX TEMP:  19;

COLDWATER      FLURRIES  17  11  79 NW9       29.97R WCI   5
6HR MIN TEMP:  17; 6HR MAX TEMP:  21;

FREMONT        FLURRIES  14   8  76 NW8       30.00R WCI   3
6HR MIN TEMP:  14; 6HR MAX TEMP:  21;

HOLLAND        LGT SNOW  16  10  77 NW6       30.03R WCI   7
6HR MIN TEMP:  15; 6HR MAX TEMP:  20; 6HR PCP:  0.02;

GRAND RAPIDS   PTCLDY    15   6  67 NW14      30.00R WCI   0
6HR MIN TEMP:  15; 6HR MAX TEMP:  22; 6HR PCP: TRACE;

IONIA          MOCLDY    15   3  58 NW13      29.97R WCI   1
6HR MIN TEMP:  15; 6HR MAX TEMP:  22;

KALAMAZOO      CLOUDY    16   6  65 NW16      30.00R WCI   1
6HR MIN TEMP:  15; 6HR MAX TEMP:  21; 6HR PCP: TRACE;

LUDINGTON      FLURRIES  16   7  66 NW9G21    30.02R WCI   5
6HR MIN TEMP:  15; 6HR MAX TEMP:  17;

MARSHALL       CLOUDY    16   4  58 NW9G18    29.96R WCI   5
6HR MIN TEMP:  16; 6HR MAX TEMP:  24;

MOUNT PLEASANT MOCLDY    15   2  56 NW8G16    29.95R WCI   5
6HR MIN TEMP:  15; 6HR MAX TEMP:  23;

MUSKEGON       CLOUDY    16   6  65 N9        30.03R WCI   4
6HR MIN TEMP:  16; 6HR MAX TEMP:  21; 6HR PCP:  0.01;

SOUTH HAVEN    FLURRIES  18   8  65 NW14G21   30.03R WCI   4
$$
MIZ016>042-110100-
NORTHERN LOWER MICHIGAN

CITY           SKY/WX    TMP DP  RH WIND       PRES   REMARKS
ALPENA         LGT SNOW   9   3  77 NW12G20   29.91R WCI  -6
6HR MIN TEMP:   9; 6HR MAX TEMP:  13; 6HR PCP: TRACE;

BEAVER ISLAND  CLOUDY    12   4  69 N9G21     29.99R WCI   0
6HR MIN TEMP:  11; 6HR MAX TEMP:  14;

BELLAIRE       CLOUDY    13   2  60 N8        29.98R WCI   2
6HR MIN TEMP:  13; 6HR MAX TEMP:  16;

CADILLAC       LGT SNOW  12   7  78 NW7G17    29.90R WCI   2
CHARLEVOIX     LGT SNOW  14   5  67 NW20G26   30.00R WCI  -3
6HR MIN TEMP:  13; 6HR MAX TEMP:  14;

FRANKFORT      CLOUDY    16   6  65 N13G23    30.01R WCI   2
GRAYLING       LGT SNOW  10   5  79 NW7       29.91R WCI   0
HARBOR SPRINGS CLOUDY    10  -2  57 NW9       29.96R WCI  -3
HOUGHTON LAKE  CLEAR      9  -1  64 NW8       29.91R WCI  -3
6HR MIN TEMP:   9; 6HR MAX TEMP:  16; 6HR PCP: TRACE;

MANISTEE       CLOUDY    18   3  53 N12       30.00R WCI   5
OSCODA         MOCLDY     9   1  68 NW12      29.91R WCI  -6
6HR MIN TEMP:   9; 6HR MAX TEMP:  15;

PELLSTON       PTCLDY     8  -2  63 NW14      29.96R WCI  -8
6HR MIN TEMP:   8; 6HR MAX TEMP:  12;

ROGERS CITY    LGT SNOW  11   2  68 NW14G22   29.92R WCI  -5
TRAVERSE CITY  FLURRIES  16   3  56 N16G24    29.97R WCI   1
6HR MIN TEMP:  15; 6HR MAX TEMP:  17; 6HR PCP: TRACE;

$$
MIZ007>008-015-110100-
EASTERN UPPER MICHIGAN

CITY           SKY/WX    TMP DP  RH WIND       PRES   REMARKS
KINROSS        CLOUDY     9   1  72 N8        29.93R WCI  -4
6HR MIN TEMP:   9; 6HR MAX TEMP:   9;

MACKINAC ISLAN CLOUDY     9   2  74 N12G21    29.94R WCI  -6
6HR MIN TEMP:   9; 6HR MAX TEMP:  12;

NEWBERRY       LGT SNOW   9   4  83 NW7       29.95R WCI  -3
6HR MIN TEMP:   8; 6HR MAX TEMP:  10;

S. S. MARIE    CLEAR      6  -5  60 N6        29.94R WCI  -4
6HR MIN TEMP:   6; 6HR MAX TEMP:  10;

MUNISING         N/A     13   6  74 N16       30.02R WCI  -3
6HR MIN TEMP:  11; 6HR MAX TEMP:  13; 6HR PCP:  0.02;

$$
MIZ004>006-011>014-085-110100-
CENTRAL UPPER MICHIGAN

CITY           SKY/WX    TMP DP  RH WIND       PRES   REMARKS
MANISTIQUE     LGT SNOW  10   7  85 NW7       30.00R WCI   0
6HR MIN TEMP:  10; 6HR MAX TEMP:  13;

ESCANABA       PTCLDY    10  -4  52 NW9G17    30.06R WCI  -2
6HR MIN TEMP:  10; 6HR MAX TEMP:  16;

MENOMINEE      CLEAR      9  -6  52 N8        30.08R WCI  -4
6HR MIN TEMP:   9; 6HR MAX TEMP:  16;

SAWYER-GWINN   MOCLDY     5   0  78 NW12      30.00R WCI -11
$$
MIZ001>003-009>011-084-110100-
WESTERN UPPER MICHIGAN

CITY           SKY/WX    TMP DP  RH WIND       PRES   REMARKS
IRON MOUNTAIN  CLOUDY     7  -4  60 N9        30.04R WCI  -7
6HR MIN TEMP:   7; 6HR MAX TEMP:  10;

HOUGHTON       FLURRIES   8   0  69 NW16      30.05R WCI -10
6HR MIN TEMP:   6; 6HR MAX TEMP:   8; 6HR PCP:  0.01;

COPPER HARBOR    N/A     12   5  73 N22G33    30.07R WCI  -7
6HR MIN TEMP:  10; 6HR MAX TEMP:  12;

IRONWOOD       CLOUDY     7   5  92 W6        30.08R WCI  -3
6HR MIN TEMP:   7; 6HR MAX TEMP:   9;

$$

ABBREVIATIONS USED IN REMARKS
   TC - TEMPERATURE IN CELSIUS
  WCI - WIND CHILL INDEX
   HX - HEAT INDEX
  VSB - VISIBILITY





USA.gov is the U.S. government's official web portal to all federal, state and local government web resources and services.